Location: WWIN Observatory
(34.8953°N, 91.9583°W)
Time: 09:18:32
(UTC-05:00)

N. Korean satellite - Visible Passes

Search period start: 20 October 2019 00:00
Search period end: 30 October 2019 00:00
Orbit: 455 x 508 km, 97.2° (Epoch: 19 October)

Date Brightness Start Highest point End Pass type
(mag) Time Alt. Az. Time Alt. Az. Time Alt. Az.
20 Oct 10.0 06:10:01 10° NE 06:12:27 17° E 06:14:54 10° SE visible
21 Oct 10.4 19:25:07 10° WSW 19:26:04 11° W 19:27:02 10° WNW visible
22 Oct 7.1 06:51:42 10° NNE 06:55:20 67° E 06:59:00 10° S visible
22 Oct 9.3 18:57:47 10° SSW 19:00:37 24° W 19:03:28 10° NW visible
23 Oct 9.0 06:26:46 10° NE 06:30:00 29° E 06:33:14 10° SSE visible
24 Oct 10.2 06:02:39 10° ENE 06:04:35 14° E 06:06:31 10° SE visible
25 Oct 10.1 19:16:16 10° SW 19:18:08 14° W 19:20:02 10° WNW visible
26 Oct 7.7 06:43:53 10° NNE 06:47:29 51° E 06:51:06 10° S visible
26 Oct 8.7 18:49:38 10° SSW 18:52:42 31° W 18:55:49 10° NNW visible
27 Oct 9.4 06:19:07 10° NE 06:22:07 23° E 06:25:07 10° SSE visible
28 Oct 10.5 05:55:39 10° ENE 05:56:40 11° E 05:57:41 10° ESE visible
29 Oct 9.8 19:07:45 10° SW 19:10:11 18° W 19:12:38 10° NW visible
